Sanger
DateTemperatureDew Point
08/31 - 06:15 PM85.7°62.9°
08/31 - 06:00 PM87.6°57.3°
08/31 - 05:45 PM88.2°58.8°
08/31 - 05:30 PM89.3°55.5°
08/31 - 05:15 PM91.2°57.2°
08/31 - 05:00 PM91.5°58.4°
08/31 - 04:45 PM92.2°56.8°
08/31 - 04:30 PM92.8°57.1°
08/31 - 04:15 PM92.7°56.8°
08/31 - 04:00 PM92.9°56.1°
08/31 - 03:45 PM92.6°56.3°
08/31 - 03:30 PM93.2°56.1°
08/31 - 03:15 PM93.1°54.9°
08/31 - 03:00 PM92.7°55.9°
08/31 - 02:45 PM92.3°54.7°
08/31 - 02:30 PM92.2°56.0°
08/31 - 02:15 PM91.1°56.0°
08/31 - 02:00 PM90.9°55.3°
08/31 - 01:45 PM90.6°55.6°
08/31 - 01:30 PM90.3°56.0°
08/31 - 01:15 PM89.1°55.2°
08/31 - 01:00 PM88.4°55.8°
08/31 - 12:45 PM88.8°55.3°
08/31 - 12:30 PM88.2°57.0°
08/31 - 12:15 PM86.2°57.7°
08/31 - 12:00 PM84.6°57.6°
08/31 - 11:45 AM83.5°57.4°
08/31 - 11:30 AM82.8°57.0°
08/31 - 11:15 AM81.8°56.7°
08/31 - 11:00 AM80.5°56.7°
08/31 - 10:45 AM79.3°56.1°
08/31 - 10:30 AM78.0°56.3°
08/31 - 10:15 AM76.8°56.3°
08/31 - 10:00 AM75.6°57.0°
08/31 - 09:45 AM74.3°56.7°
08/31 - 09:30 AM72.6°56.3°
08/31 - 09:15 AM71.8°56.8°
08/31 - 09:00 AM70.5°56.5°
08/31 - 08:45 AM68.7°56.1°
08/31 - 08:30 AM67.3°56.0°
08/31 - 08:15 AM65.5°55.9°
08/31 - 08:00 AM63.9°55.4°
08/31 - 07:45 AM62.1°55.0°
08/31 - 07:30 AM59.4°55.6°
08/31 - 07:15 AM57.2°55.7°
08/31 - 07:00 AM55.7°54.4°
08/31 - 06:45 AM54.3°53.1°
08/31 - 06:30 AM53.9°52.5°
08/31 - 06:15 AM53.8°52.2°
08/31 - 06:00 AM54.2°52.4°
08/31 - 05:45 AM54.7°52.7°
08/31 - 05:30 AM55.0°52.7°
08/31 - 05:15 AM55.4°52.9°
08/31 - 05:00 AM56.0°53.2°
08/31 - 04:45 AM56.0°53.3°
08/31 - 04:30 AM56.1°53.0°
08/31 - 04:15 AM57.1°53.2°
08/31 - 04:00 AM58.1°53.4°
08/31 - 03:45 AM59.0°53.5°
08/31 - 03:30 AM60.8°53.6°
08/31 - 03:15 AM62.0°53.2°
08/31 - 03:00 AM62.6°52.8°
08/31 - 02:45 AM62.8°52.6°
08/31 - 02:30 AM63.1°52.6°
08/31 - 02:15 AM63.9°52.1°
08/31 - 02:00 AM64.3°51.7°
08/31 - 01:45 AM64.0°51.3°
08/31 - 01:30 AM64.2°51.5°
08/31 - 01:15 AM65.1°51.1°
08/31 - 01:00 AM65.3°50.9°
08/31 - 12:45 AM65.6°50.6°
08/31 - 12:30 AM65.9°50.6°
08/31 - 12:15 AM66.3°50.5°
08/31 - 12:00 AM67.3°50.9°
08/30 - 11:45 PM68.8°51.1°
08/30 - 11:30 PM69.5°51.1°
08/30 - 11:15 PM69.6°51.7°
08/30 - 11:00 PM68.9°52.3°
08/30 - 10:45 PM68.8°52.7°
08/30 - 10:30 PM69.9°53.9°
08/30 - 10:15 PM71.0°53.3°
08/30 - 10:00 PM67.8°55.6°
08/30 - 09:45 PM68.6°57.2°
08/30 - 09:30 PM70.6°57.0°
08/30 - 09:15 PM73.4°55.7°
08/30 - 09:00 PM75.8°55.2°
08/30 - 08:45 PM76.7°56.4°
08/30 - 08:30 PM77.2°57.2°
08/30 - 08:15 PM77.1°57.4°
08/30 - 08:00 PM76.5°58.0°
08/30 - 07:45 PM77.5°58.6°
08/30 - 07:30 PM78.4°59.1°
08/30 - 07:15 PM80.3°59.1°
08/30 - 07:00 PM80.6°61.9°
08/30 - 06:45 PM82.9°63.1°
08/30 - 06:30 PM85.5°64.8°
08/30 - 06:15 PM88.1°62.8°
08/30 - 06:00 PM89.6°59.2°
08/30 - 05:45 PM90.5°59.5°
08/30 - 05:30 PM91.1°57.2°
08/30 - 05:15 PM91.8°56.2°
08/30 - 05:00 PM92.3°56.2°
08/30 - 04:45 PM92.8°56.2°
08/30 - 04:30 PM93.2°55.9°
08/30 - 04:15 PM94.1°56.0°
08/30 - 04:00 PM94.7°55.2°
08/30 - 03:45 PM94.1°55.5°
08/30 - 03:30 PM94.5°54.4°
08/30 - 03:15 PM93.8°54.6°
08/30 - 03:00 PM93.1°53.7°
08/30 - 02:45 PM92.8°53.7°
08/30 - 02:30 PM92.2°53.9°
08/30 - 02:15 PM91.9°55.2°
08/30 - 02:00 PM91.6°54.5°
08/30 - 01:45 PM91.4°55.1°
08/30 - 01:30 PM90.6°54.4°
08/30 - 01:15 PM89.2°54.4°
08/30 - 01:00 PM88.7°54.7°
08/30 - 12:45 PM88.3°53.5°
08/30 - 12:30 PM87.6°54.0°
08/30 - 12:15 PM86.0°55.3°
08/30 - 12:00 PM85.3°55.0°
08/30 - 11:45 AM83.8°55.3°
08/30 - 11:30 AM82.4°56.1°
08/30 - 11:15 AM81.6°55.2°
08/30 - 11:00 AM80.6°56.0°
08/30 - 10:45 AM79.6°56.5°
08/30 - 10:30 AM78.3°55.4°
08/30 - 10:15 AM76.6°54.2°
08/30 - 10:00 AM76.0°54.6°
08/30 - 09:45 AM74.8°54.1°
08/30 - 09:30 AM73.7°53.9°
08/30 - 09:15 AM72.4°53.5°
08/30 - 09:00 AM71.0°54.5°
08/30 - 08:45 AM70.2°54.0°
08/30 - 08:30 AM69.0°53.5°
08/30 - 08:15 AM67.6°52.0°
08/30 - 08:00 AM66.3°52.3°
08/30 - 07:45 AM64.5°51.7°
08/30 - 07:30 AM63.3°51.7°
08/30 - 07:15 AM61.4°51.7°
08/30 - 07:00 AM59.1°51.5°
08/30 - 06:45 AM57.5°51.9°
08/30 - 06:30 AM57.4°51.1°
08/30 - 06:15 AM57.8°51.4°
08/30 - 06:00 AM59.8°50.7°
08/30 - 05:45 AM59.7°50.7°
08/30 - 05:30 AM59.4°50.7°
08/30 - 05:15 AM58.7°51.1°
08/30 - 05:00 AM58.2°51.7°
08/30 - 04:45 AM57.8°52.0°
08/30 - 04:30 AM57.7°52.9°
08/30 - 04:15 AM57.9°53.0°
08/30 - 04:00 AM58.2°53.7°
08/30 - 03:45 AM59.1°53.6°
08/30 - 03:30 AM59.1°53.5°
08/30 - 03:15 AM59.1°53.9°
08/30 - 03:00 AM59.5°53.9°
08/30 - 02:45 AM59.6°54.3°
08/30 - 02:30 AM61.0°55.2°
08/30 - 02:15 AM62.8°55.1°
08/30 - 02:00 AM62.9°55.3°
08/30 - 01:45 AM63.7°55.1°
08/30 - 01:30 AM65.2°54.7°
08/30 - 01:15 AM67.1°54.5°
08/30 - 01:00 AM68.2°54.6°
08/30 - 12:45 AM68.8°55.1°
08/30 - 12:30 AM69.4°55.4°
08/30 - 12:15 AM70.1°55.5°
08/30 - 12:00 AM70.5°55.8°
08/29 - 11:45 PM71.3°56.0°
08/29 - 11:30 PM72.2°55.9°
08/29 - 11:15 PM72.3°56.0°
08/29 - 11:00 PM70.6°56.5°
08/29 - 10:45 PM67.0°59.4°
08/29 - 10:30 PM67.5°60.6°
08/29 - 10:15 PM68.6°60.8°
08/29 - 10:00 PM69.9°60.3°
08/29 - 09:45 PM69.7°61.3°
08/29 - 09:30 PM70.2°62.2°
08/29 - 09:15 PM70.9°62.2°
08/29 - 09:00 PM71.4°63.9°
08/29 - 08:45 PM72.8°64.1°
08/29 - 08:30 PM75.0°64.0°
08/29 - 08:15 PM77.0°62.5°
08/29 - 08:00 PM76.3°65.4°
08/29 - 07:45 PM77.0°68.5°
08/29 - 07:30 PM79.0°68.9°
08/29 - 07:15 PM81.4°68.1°
08/29 - 07:00 PM83.7°67.3°